AIC177 VABB-OMDB

Flight info

Callsign AIC177
Flight time 0h 35m
Altitude 38000
Route RAXET2A SAKUN V2 SUGID N571 VUSET A454 PASOV B540 KUPMA/N0398F240 B540 MIVEK P574 IMPED IMPED3C
Aircraft B789/H-SDE1E2E3FGHIJ2J3J4J5M1RWXY/LB1D1

Departure

Time 2026-04-25 21:18
Airport Chhatrapati Shivaji Maharaj International Airport (VABB)

Arrival

Time 2026-04-25 21:53
Airport Dubai International Airport (OMDB)
Time Latitude Longitude Altitude Speed Heading
2026-04-25 21:01 19.09519 72.87123 47 ft 0 kts 140°
2026-04-25 21:06 19.09539 72.87107 51 ft 4 kts 147°
2026-04-25 21:06 19.09554 72.87097 54 ft 4 kts 154°
2026-04-25 21:07 19.09588 72.87087 50 ft 4 kts 184°
2026-04-25 21:07 19.09608 72.87093 50 ft 1 kts 224°
2026-04-25 21:10 19.09603 72.87088 47 ft 2 kts 224°
2026-04-25 21:11 19.09585 72.87070 48 ft 5 kts 224°
2026-04-25 21:11 19.09547 72.87028 48 ft 12 kts 227°
2026-04-25 21:11 19.09472 72.86940 50 ft 17 kts 229°
2026-04-25 21:11 19.09397 72.86873 51 ft 10 kts 187°
2026-04-25 21:12 19.09332 72.86913 47 ft 15 kts 135°
2026-04-25 21:12 19.09242 72.87022 49 ft 24 kts 111°
2026-04-25 21:12 19.09236 72.87201 50 ft 20 kts 89°
2026-04-25 21:12 19.09214 72.87253 47 ft 7 kts 150°
2026-04-25 21:13 19.09141 72.87263 53 ft 13 kts 180°
2026-04-25 21:13 19.09054 72.87302 50 ft 14 kts 111°
2026-04-25 21:13 19.09052 72.87424 50 ft 21 kts 89°
2026-04-25 21:13 19.09054 72.87606 49 ft 28 kts 89°
2026-04-25 21:14 19.09058 72.87836 49 ft 34 kts 89°
2026-04-25 21:14 19.09060 72.87978 54 ft 9 kts 89°
2026-04-25 21:14 19.09048 72.88037 49 ft 7 kts 129°
2026-04-25 21:14 19.09005 72.88052 53 ft 7 kts 176°
2026-04-25 21:15 19.08954 72.88055 47 ft 9 kts 178°
2026-04-25 21:15 19.08900 72.88036 52 ft 7 kts 226°
2026-04-25 21:15 19.08887 72.87994 49 ft 6 kts 265°
2026-04-25 21:15 19.08887 72.87982 48 ft 0 kts 271°
2026-04-25 21:17 19.08887 72.87981 48 ft 1 kts 271°
2026-04-25 21:17 19.08888 72.87925 53 ft 25 kts 271°
2026-04-25 21:17 19.08880 72.87433 55 ft 107 kts 269°
2026-04-25 21:17 19.08865 72.86377 56 ft 178 kts 270°
2026-04-25 21:18 19.08855 72.84960 657 ft 193 kts 273°
2026-04-25 21:18 19.08862 72.83661 1905 ft 169 kts 276°
2026-04-25 21:18 19.08882 72.82419 2597 ft 175 kts 276°
2026-04-25 21:18 19.08858 72.81035 3022 ft 201 kts 269°
2026-04-25 21:19 19.08782 72.79492 3493 ft 224 kts 271°
2026-04-25 21:19 19.08747 72.77757 3982 ft 247 kts 271°
2026-04-25 21:19 19.09182 72.70714 6988 ft 266 kts 277°
2026-04-25 21:19 19.10910 72.62910 10078 ft 284 kts 295°
2026-04-25 21:20 19.14111 72.54980 12885 ft 304 kts 291°
2026-04-25 21:20 19.16290 72.49362 14789 ft 309 kts 292°
2026-04-25 21:20 19.20662 72.37960 18163 ft 322 kts 292°
2026-04-25 21:20 19.24098 72.28989 20308 ft 330 kts 291°
2026-04-25 21:21 19.27936 72.18955 20598 ft 415 kts 292°
2026-04-25 21:21 19.32303 72.07507 23077 ft 425 kts 291°
2026-04-25 21:21 19.36749 71.95831 25219 ft 429 kts 290°
2026-04-25 21:21 19.41254 71.83973 26982 ft 438 kts 290°
2026-04-25 21:22 19.45837 71.71880 28528 ft 448 kts 290°
2026-04-25 21:22 19.50455 71.59667 30048 ft 456 kts 289°
2026-04-25 21:22 19.55277 71.46892 30889 ft 472 kts 290°
2026-04-25 21:22 19.60141 71.33960 32055 ft 476 kts 290°
2026-04-25 21:23 19.65064 71.20846 33012 ft 482 kts 290°
2026-04-25 21:23 19.70044 71.07542 33907 ft 487 kts 289°
2026-04-25 21:23 19.75056 70.94123 34771 ft 488 kts 289°
2026-04-25 21:23 19.80066 70.80669 35426 ft 493 kts 290°
2026-04-25 21:24 19.85068 70.67204 36432 ft 489 kts 290°
2026-04-25 21:24 19.90053 70.53748 37334 ft 487 kts 290°
2026-04-25 21:24 19.95014 70.40321 37830 ft 492 kts 290°
2026-04-25 21:24 20.00014 70.26754 37835 ft 490 kts 289°
2026-04-25 21:25 20.18237 69.77005 37989 ft 486 kts 290°
2026-04-25 21:25 20.37690 69.23236 37793 ft 487 kts 290°
2026-04-25 21:26 20.56873 68.69780 38089 ft 479 kts 290°
2026-04-25 21:26 20.75890 68.16262 37860 ft 485 kts 290°
2026-04-25 21:27 20.94605 67.62637 38045 ft 479 kts 290°
2026-04-25 21:27 21.13450 67.08302 37795 ft 491 kts 290°
2026-04-25 21:28 21.22872 66.80850 37907 ft 490 kts 290°
2026-04-25 21:28 21.32153 66.53821 37990 ft 487 kts 290°
2026-04-25 21:28 21.50661 65.98961 37950 ft 488 kts 290°
2026-04-25 21:29 21.59932 65.71455 37795 ft 493 kts 290°
2026-04-25 21:29 21.69092 65.43827 37961 ft 488 kts 290°
2026-04-25 21:29 21.78240 65.16213 38068 ft 484 kts 290°
2026-04-25 21:29 21.87237 64.88881 37786 ft 486 kts 290°
2026-04-25 21:30 22.04987 64.34375 38059 ft 478 kts 289°
2026-04-25 21:30 22.13765 64.07226 37820 ft 481 kts 290°
2026-04-25 21:30 22.19539 63.89219 38050 ft 474 kts 290°
2026-04-25 21:31 22.39691 63.25891 37784 ft 479 kts 289°
2026-04-25 21:31 22.49089 62.99088 38002 ft 474 kts 296°
2026-04-25 21:31 22.59309 62.73173 37970 ft 474 kts 292°
2026-04-25 21:32 22.69358 62.46707 37838 ft 475 kts 292°
2026-04-25 21:32 22.79555 62.20372 38039 ft 471 kts 295°
2026-04-25 21:32 22.89715 61.94085 37780 ft 476 kts 291°
2026-04-25 21:32 22.99586 61.67752 38053 ft 468 kts 293°
2026-04-25 21:33 23.09606 61.41566 37881 ft 471 kts 294°
2026-04-25 21:33 23.19475 61.15327 37943 ft 466 kts 292°
2026-04-25 21:33 23.38984 60.63090 37826 ft 466 kts 293°
2026-04-25 21:34 23.48497 60.36872 37947 ft 465 kts 292°
2026-04-25 21:34 23.57789 60.10437 37857 ft 465 kts 292°
2026-04-25 21:34 23.75984 59.57939 37864 ft 459 kts 292°
2026-04-25 21:35 23.84617 59.32908 37676 ft 405 kts 292°
2026-04-25 21:35 23.91872 59.11649 36539 ft 358 kts 291°
2026-04-25 21:35 23.99075 58.90491 33262 ft 379 kts 289°
2026-04-25 21:35 24.06355 58.68963 30349 ft 390 kts 289°
2026-04-25 21:36 24.12009 58.52183 28005 ft 397 kts 289°
2026-04-25 21:36 24.12967 58.49339 27589 ft 399 kts 289°
2026-04-25 21:36 24.13925 58.46491 27188 ft 400 kts 289°
2026-04-25 21:36 24.14885 58.43628 26778 ft 401 kts 289°
2026-04-25 21:37 24.16942 58.37490 25977 ft 401 kts 289°
2026-04-25 21:37 24.18242 58.33608 25500 ft 401 kts 289°
2026-04-25 21:37 24.27644 58.05422 21072 ft 412 kts 289°
2026-04-25 21:37 24.31439 57.93982 20110 ft 396 kts 289°
2026-04-25 21:38 24.35149 57.82771 19016 ft 387 kts 288°
2026-04-25 21:38 24.38792 57.71733 17896 ft 382 kts 288°
2026-04-25 21:38 24.42378 57.60834 16766 ft 377 kts 288°
2026-04-25 21:38 24.45920 57.50045 15710 ft 374 kts 289°
2026-04-25 21:39 24.50012 57.37537 14617 ft 370 kts 289°
2026-04-25 21:39 24.56924 57.16328 12969 ft 362 kts 289°
2026-04-25 21:39 24.63603 56.95717 11515 ft 353 kts 289°
2026-04-25 21:39 24.70105 56.75550 10218 ft 347 kts 289°
2026-04-25 21:40 24.76498 56.55656 9078 ft 341 kts 289°
2026-04-25 21:40 24.82671 56.36289 8182 ft 332 kts 288°
2026-04-25 21:40 24.85084 56.28691 7728 ft 333 kts 289°
2026-04-25 21:40 24.85853 56.26271 7624 ft 332 kts 289°
2026-04-25 21:41 24.86614 56.23872 7519 ft 332 kts 289°
2026-04-25 21:41 24.87374 56.21474 7402 ft 331 kts 289°
2026-04-25 21:41 24.88132 56.19086 7309 ft 331 kts 289°
2026-04-25 21:41 24.88889 56.16695 7201 ft 330 kts 289°
2026-04-25 21:42 24.89645 56.14308 7097 ft 330 kts 289°
2026-04-25 21:42 24.90871 56.10432 6926 ft 329 kts 289°
2026-04-25 21:42 24.94873 55.97754 6422 ft 327 kts 289°
2026-04-25 21:42 24.95865 55.94604 6305 ft 326 kts 289°
2026-04-25 21:43 24.96352 55.93057 6064 ft 317 kts 289°
2026-04-25 21:43 24.97328 55.89952 4761 ft 319 kts 290°
2026-04-25 21:43 24.97805 55.88434 4209 ft 315 kts 291°
2026-04-25 21:43 24.98519 55.86167 3395 ft 311 kts 291°
2026-04-25 21:44 24.99222 55.83928 3067 ft 315 kts 291°
2026-04-25 21:44 25.00060 55.81707 3050 ft 308 kts 303°
2026-04-25 21:44 25.02330 55.77693 3056 ft 309 kts 302°
2026-04-25 21:45 25.03402 55.75714 3052 ft 292 kts 303°
2026-04-25 21:45 25.04092 55.74485 3033 ft 277 kts 303°
2026-04-25 21:45 25.05346 55.72379 3026 ft 218 kts 306°
2026-04-25 21:45 25.06119 55.71042 3026 ft 200 kts 304°
2026-04-25 21:46 25.06813 55.69792 3027 ft 188 kts 303°
2026-04-25 21:46 25.07489 55.68568 3027 ft 185 kts 303°
2026-04-25 21:46 25.08165 55.67350 3029 ft 187 kts 303°
2026-04-25 21:46 25.08841 55.66129 3025 ft 186 kts 303°
2026-04-25 21:47 25.09513 55.64914 3025 ft 185 kts 303°
2026-04-25 21:47 25.10186 55.63700 3027 ft 186 kts 303°
2026-04-25 21:47 25.10861 55.62480 3024 ft 186 kts 303°
2026-04-25 21:47 25.11535 55.61260 3017 ft 186 kts 303°
2026-04-25 21:48 25.12210 55.60043 3016 ft 186 kts 303°
2026-04-25 21:48 25.12887 55.58820 3014 ft 187 kts 303°
2026-04-25 21:48 25.13564 55.57596 3015 ft 187 kts 303°
2026-04-25 21:48 25.14239 55.56375 3012 ft 186 kts 303°
2026-04-25 21:49 25.14913 55.55159 3014 ft 185 kts 303°
2026-04-25 21:49 25.15587 55.53940 2896 ft 189 kts 303°
2026-04-25 21:49 25.16270 55.52714 2658 ft 185 kts 303°
2026-04-25 21:49 25.16933 55.51517 2435 ft 183 kts 303°
2026-04-25 21:50 25.17584 55.50339 2209 ft 175 kts 303°
2026-04-25 21:50 25.18197 55.49238 1979 ft 160 kts 304°
2026-04-25 21:50 25.18744 55.48250 1781 ft 144 kts 304°
2026-04-25 21:50 25.19260 55.47317 1621 ft 144 kts 304°
2026-04-25 21:51 25.19787 55.46366 1432 ft 146 kts 304°
2026-04-25 21:51 25.20323 55.45400 1243 ft 148 kts 303°
2026-04-25 21:51 25.20860 55.44431 1053 ft 148 kts 303°
2026-04-25 21:51 25.21403 55.43451 880 ft 150 kts 303°
2026-04-25 21:52 25.21950 55.42463 699 ft 152 kts 302°
2026-04-25 21:52 25.22511 55.41457 516 ft 154 kts 301°
2026-04-25 21:52 25.23067 55.40437 291 ft 153 kts 300°
2026-04-25 21:52 25.23621 55.39435 69 ft 153 kts 300°
2026-04-25 21:53 25.24107 55.38552 35 ft 116 kts 301°
2026-04-25 21:53 25.24454 55.37930 27 ft 78 kts 301°
2026-04-25 21:53 25.24612 55.37530 19 ft 44 kts 274°
2026-04-25 21:53 25.24617 55.37363 19 ft 6 kts 273°
2026-04-25 21:54 25.24618 55.37329 20 ft 0 kts 262°
2026-04-25 21:54 25.24617 55.37328 20 ft 1 kts 257°
2026-04-25 21:54 25.24610 55.37313 24 ft 0 kts 236°
2026-04-25 21:54 25.24609 55.37311 26 ft 4 kts 236°
2026-04-25 21:55 25.24606 55.37307 28 ft 0 kts 232°
2026-04-25 21:55 25.24612 55.37316 23 ft 14 kts 242°
2026-04-25 21:55 25.24559 55.37253 37 ft 6 kts 190°
2026-04-25 21:55 25.24523 55.37263 38 ft 11 kts 146°
2026-04-25 21:56 25.24460 55.37370 40 ft 15 kts 120°
2026-04-25 21:56 25.24424 55.37401 40 ft 6 kts 168°
2026-04-25 21:56 25.24394 55.37395 41 ft 4 kts 200°
2026-04-25 21:56 25.24364 55.37379 41 ft 0 kts 208°